FW6856 Weather Reports


Display with metric or nautical units.
time (UTC)temp
F
wind
direction
speed
MPH
gust
MPH
rain 1hr
in
rain 24hr
in
rain mn
in
humidity
%
barometer
mb
20260505124555 51 249 2.0 5.0 0.00 0.00 0.00 64 1018.7
20260505123049 51 233 2.0 6.0 0.00 0.00 0.00 64 1018.5
20260505121543 50 360 2.0 8.0 0.00 0.00 0.00 65 1018.5
20260505120054 51 234 1.0 5.0 0.00 0.00 0.00 63 1018.4
20260505114542 50 242 1.0 5.0 0.00 0.00 0.00 64 1018.4
20260505113109 50 360 1.0 5.0 0.00 0.00 0.00 65 1018.2
20260505111549 50 246 2.0 5.0 0.00 0.00 0.00 65 1017.9
20260505101550 49 360 1.0 5.0 0.00 0.00 0.00 66 1017.8
20260505100045 49 0 1.0 5.0 0.00 0.00 0.00 67 1017.8
20260505094545 49 360 1.0 3.0 0.00 0.00 0.00 67 1017.9
20260505093051 49 360 2.0 6.0 0.00 0.00 0.00 66 1017.8
20260505091546 49 360 1.0 10.0 0.00 0.00 0.00 66 1017.9
20260505090049 49 227 2.0 8.0 0.00 0.00 0.00 66 1017.8
20260505084552 50 229 2.0 8.0 0.00 0.00 0.00 65 1017.8
20260505083051 50 275 3.0 10.0 0.00 0.00 0.00 64 1017.9
20260505081550 50 360 2.0 6.0 0.00 0.00 0.00 65 1018.0
20260505080049 50 360 1.0 9.0 0.00 0.00 0.00 63 1017.9
20260505074542 50 202 3.0 12.0 0.00 0.00 0.00 63 1017.8
20260505073048 50 360 3.0 9.0 0.00 0.00 0.00 63 1017.9
20260505071545 50 360 3.0 9.0 0.00 0.00 0.00 62 1017.9
20260505070050 50 211 3.0 11.0 0.00 0.00 0.00 62 1017.8
20260505064551 50 360 4.0 10.0 0.00 0.00 0.00 62 1018.0
20260505063042 50 221 3.0 10.0 0.00 0.00 0.00 62 1018.0
20260505061545 51 360 3.0 9.0 0.00 0.00 0.00 62 1018.3
20260505060049 51 217 2.0 8.0 0.00 0.00 0.00 63 1018.4
20260505054549 51 218 2.0 8.0 0.00 0.00 0.00 63 1018.4
20260505053108 51 22 1.0 8.0 0.00 0.00 0.00 65 1018.4
20260505051543 51 178 1.0 10.0 0.00 0.00 0.00 65 1018.4
20260505050104 52 183 2.0 9.0 0.00 0.00 0.00 64 1018.5
20260505041545 52 180 1.0 9.0 0.00 0.00 0.00 63 1018.5
20260505040049 52 245 2.0 11.0 0.00 0.00 0.00 63 1018.7
20260505034601 52 360 2.0 6.0 0.00 0.00 0.00 62 1018.9
20260505033052 52 185 2.0 6.0 0.00 0.00 0.00 63 1018.9
20260505031547 53 200 2.0 8.0 0.00 0.00 0.00 63 1019.3
20260505030049 53 360 1.0 5.0 0.00 0.00 0.00 63 1019.0
20260505024543 53 223 3.0 8.0 0.00 0.00 0.00 63 1019.1
20260505023050 53 360 1.0 8.0 0.00 0.00 0.00 63 1019.0
20260505021549 53 0 1.0 6.0 0.00 0.00 0.00 63 1019.0
20260505020047 53 185 1.0 3.0 0.00 0.00 0.00 63 1018.9
20260505014547 53 0 0.0 4.0 0.00 0.00 0.00 63 1018.7
20260505013051 53 360 0.0 3.0 0.00 0.00 0.00 61 1018.7
20260505011603 53 153 1.0 4.0 0.00 0.00 0.00 61 1018.7
20260505010048 54 171 1.0 4.0 0.00 0.00 0.00 60 1018.7
20260505004544 54 219 1.0 4.0 0.00 0.00 0.00 60 1018.4
20260505003044 55 227 1.0 5.0 0.00 0.00 0.00 60 1018.4
20260505001547 56 212 0.0 3.0 0.00 0.00 0.00 58 1018.4
20260505000055 57 254 0.0 3.0 0.00 0.00 0.00 57 1018.3
20260504234538 57 0 0.0 2.0 0.00 0.00 0.00 62 1018.3
20260504233057 58 235 0.0 2.0 0.00 0.00 0.00 61 1018.2
20260504231542 59 0 0.0 3.0 0.00 0.00 0.00 59 1018.2
20260504230044 60 0 1.0 4.0 0.00 0.00 0.00 59 1018.2
20260504224544 61 225 1.0 4.0 0.00 0.00 0.00 58 1018.1
20260504223048 62 167 1.0 5.0 0.00 0.00 0.00 55 1018.2
20260504221544 63 240 2.0 5.0 0.00 0.00 0.00 54 1018.2
20260504220045 64 200 2.0 8.0 0.00 0.00 0.00 53 1018.3
20260504214543 64 360 3.0 10.0 0.00 0.00 0.00 52 1018.2
20260504213042 66 360 2.0 6.0 0.00 0.00 0.00 49 1018.2
20260504211545 66 273 2.0 8.0 0.00 0.00 0.00 49 1018.1
20260504210048 66 206 2.0 13.0 0.00 0.00 0.00 49 1018.1
20260504204543 67 262 2.0 5.0 0.00 0.00 0.00 48 1018.1
20260504203048 69 217 2.0 6.0 0.00 0.00 0.00 46 1018.2
20260504201544 67 161 3.0 11.0 0.00 0.00 0.00 44 1018.1
20260504200042 68 360 2.0 9.0 0.00 0.00 0.00 39 1018.2
20260504194548 69 251 4.0 9.0 0.00 0.00 0.00 35 1018.5
20260504193045 70 360 3.0 10.0 0.00 0.00 0.00 36 1018.7
20260504191554 70 241 3.0 10.0 0.00 0.00 0.00 36 1018.7
20260504190051 69 211 4.0 9.0 0.00 0.00 0.00 33 1018.9
20260504184548 68 227 2.0 8.0 0.00 0.00 0.00 42 1019.1
20260504183044 68 63 3.0 11.0 0.00 0.00 0.00 41 1019.3
20260504181546 68 227 3.0 11.0 0.00 0.00 0.00 42 1019.3
20260504180048 65 105 2.0 8.0 0.00 0.00 0.00 37 1019.3
20260504174552 66 284 2.0 6.0 0.00 0.00 0.00 41 1019.5
20260504173049 64 315 1.0 6.0 0.00 0.00 0.00 44 1019.6
20260504171549 65 251 3.0 6.0 0.00 0.00 0.00 43 1019.5